QPF
0.12 0.15 0.24 0.31 0.29 0.17 0.12 0.09 0.07 0.08 0.08 0.08 0.09 0.07 0.06 0.07 0.07 0.08 0.07 0.07 0.07 0.06 0.07 0.06 0.05 0.04 0.04 0.05 0.05 0.05 0.03 0.02 0.03 0.03 0.03 0.02 0.02 0.02 0.02 0.02 0.02 0.02 0.03
0.11 0.14 0.18 0.19 0.19 0.15 0.12 0.09 0.07 0.07 0.08 0.08 0.09 0.06 0.05 0.08 0.09 0.08 0.08 0.08 0.07 0.07 0.07 0.06 0.05 0.03 0.04 0.05 0.04 0.03 0.02 0.01 0.03 0.03 0.03 0.03 0.03 0.03 0.02 0.02 0.02 0.03 0.03
0.07 0.14 0.16 0.14 0.14 0.13 0.11 0.08 0.07 0.06 0.07 0.07 0.09 0.06 0.05 0.08 0.10 0.11 0.08 0.09 0.07 0.07 0.06 0.05 0.04 0.03 0.04 0.04 0.04 0.03 0.02 0.01 0.02 0.02 0.02 0.01 0.01 0.02 0.02 0.02 0.03 0.03 0.02
0.06 0.12 0.13 0.12 0.11 0.10 0.10 0.09 0.08 0.06 0.08 0.08 0.09 0.09 0.07 0.09 0.11 0.12 0.08 0.08 0.07 0.07 0.05 0.04 0.03 0.03 0.03 0.04 0.04 0.04 0.03 0.02 0.02 0.02 0.01 0.01 0.01 0.02 0.02 0.02 0.03 0.03 0.02
0.07 0.10 0.12 0.12 0.10 0.10 0.10 0.10 0.09 0.09 0.08 0.07 0.09 0.11 0.10 0.09 0.10 0.10 0.06 0.07 0.07 0.06 0.04 0.04 0.03 0.03 0.03 0.04 0.03 0.03 0.03 0.02 0.02 0.02 0.01 0.01 0.01 0.02 0.01 0.02 0.02 0.02 0.02
0.08 0.11 0.11 0.11 0.10 0.11 0.09 0.09 0.09 0.11 0.08 0.07 0.08 0.10 0.11 0.10 0.10 0.10 0.08 0.08 0.07 0.06 0.05 0.04 0.03 0.02 0.03 0.04 0.03 0.03 0.04 0.04 0.01 0.01 0.01 0.01 0.01 0.01 0.01 0.02 0.02 0.01 0.01
0.08 0.09 0.11 0.11 0.12 0.11 0.11 0.11 0.10 0.11 0.07 0.06 0.08 0.09 0.09 0.09 0.11 0.12 0.11 0.10 0.09 0.07 0.06 0.05 0.03 0.03 0.04 0.04 0.04 0.05 0.06 0.03 0.01 0.01 0.01 0.01 0.01 0.02 0.02 0.02 0.01 0.01 0.01
0.08 0.13 0.16 0.15 0.14 0.12 0.10 0.11 0.13 0.12 0.08 0.07 0.08 0.08 0.08 0.08 0.10 0.13 0.12 0.11 0.11 0.08 0.06 0.04 0.04 0.04 0.04 0.05 0.05 0.05 0.04 0.03 0.01 0.01 0.01 0.01 0.01 0.02 0.03 0.02 0.01 0.01 0.01
0.10 0.16 0.19 0.25 0.18 0.14 0.11 0.11 0.10 0.11 0.09 0.08 0.07 0.07 0.09 0.12 0.10 0.11 0.16 0.15 0.12 0.08 0.06 0.04 0.05 0.06 0.06 0.05 0.05 0.03 0.04 0.05 0.02 0.01 0.01 0.01 0.02 0.03 0.03 0.02 0.02 0.02 0.02
0.07 0.12 0.17 0.27 0.24 0.16 0.15 0.15 0.09 0.09 0.09 0.10 0.08 0.08 0.11 0.14 0.13 0.12 0.19 0.21 0.14 0.10 0.07 0.08 0.09 0.09 0.09 0.07 0.05 0.05 0.06 0.06 0.02 0.01 0.01 0.01 0.02 0.03 0.03 0.02 0.02 0.02 0.03
0.06 0.11 0.16 0.18 0.19 0.13 0.13 0.15 0.14 0.10 0.09 0.10 0.11 0.13 0.11 0.09 0.10 0.11 0.16 0.22 0.16 0.11 0.11 0.13 0.13 0.12 0.12 0.10 0.08 0.08 0.08 0.04 0.02 0.02 0.01 0.02 0.02 0.04 0.04 0.03 0.03 0.03 0.03
0.03 0.06 0.08 0.09 0.12 0.12 0.09 0.14 0.17 0.11 0.06 0.07 0.07 0.10 0.09 0.05 0.05 0.07 0.14 0.20 0.16 0.15 0.15 0.18 0.18 0.16 0.14 0.13 0.11 0.09 0.07 0.04 0.03 0.04 0.03 0.03 0.03 0.04 0.04 0.04 0.04 0.03 0.04
0.02 0.03 0.04 0.07 0.09 0.10 0.09 0.14 0.14 0.10 0.06 0.05 0.05 0.06 0.06 0.05 0.05 0.06 0.13 0.27 0.22 0.19 0.17 0.19 0.18 0.12 0.10 0.13 0.11 0.08 0.08 0.07 0.05 0.04 0.04 0.03 0.03 0.03 0.04 0.04 0.03 0.03 0.03
0.02 0.02 0.03 0.04 0.06 0.07 0.07 0.09 0.08 0.05 0.06 0.04 0.04 0.05 0.05 0.05 0.05 0.07 0.09 0.13 0.17 0.19 0.17 0.14 0.10 0.07 0.06 0.08 0.10 0.08 0.08 0.09 0.07 0.05 0.04 0.04 0.03 0.03 0.03 0.03 0.03 0.03 0.04
0.02 0.02 0.02 0.02 0.04 0.04 0.05 0.06 0.05 0.03 0.04 0.04 0.04 0.05 0.06 0.06 0.07 0.07 0.05 0.03 0.04 0.10 0.12 0.10 0.06 0.06 0.06 0.06 0.08 0.07 0.07 0.08 0.07 0.06 0.04 0.04 0.03 0.02 0.02 0.03 0.04 0.04 0.04
0.02 0.02 0.01 0.02 0.04 0.06 0.07 0.08 0.05 0.04 0.04 0.04 0.06 0.07 0.09 0.07 0.07 0.06 0.04 0.02 0.01 0.02 0.04 0.07 0.07 0.06 0.07 0.07 0.07 0.06 0.06 0.06 0.05 0.05 0.04 0.04 0.04 0.02 0.02 0.03 0.04 0.04 0.05
0.01 0.01 0.01 0.02 0.03 0.06 0.07 0.07 0.05 0.03 0.03 0.04 0.07 0.10 0.10 0.07 0.05 0.04 0.03 0.01 0.01 0.01 0.02 0.03 0.05 0.07 0.08 0.08 0.07 0.06 0.04 0.04 0.03 0.03 0.03 0.03 0.04 0.04 0.03 0.03 0.04 0.04 0.05
0.02 0.01 0.01 0.01 0.03 0.05 0.08 0.06 0.03 0.04 0.04 0.05 0.08 0.10 0.09 0.06 0.03 0.02 0.02 0.01 0.02 0.02 0.02 0.02 0.04 0.07 0.09 0.07 0.06 0.04 0.02 0.02 0.02 0.02 0.02 0.02 0.03 0.04 0.03 0.04 0.05 0.05 0.05
0.01 0.02 0.01 0.01 0.02 0.03 0.06 0.06 0.04 0.04 0.05 0.07 0.08 0.08 0.06 0.05 0.03 0.02 0.01 0.01 0.01 0.02 0.03 0.04 0.05 0.07 0.08 0.06 0.05 0.03 0.02 0.01 0.02 0.02 0.02 0.02 0.03 0.03 0.03 0.03 0.05 0.05 0.06
0.01 0.02 0.01 0.01 0.00 0.01 0.03 0.04 0.04 0.05 0.07 0.10 0.12 0.10 0.06 0.05 0.04 0.02 0.01 0.02 0.01 0.01 0.03 0.04 0.05 0.06 0.08 0.08 0.06 0.04 0.03 0.02 0.03 0.03 0.04 0.04 0.03 0.04 0.04 0.04 0.05 0.05 0.05
0.01 0.01 0.02 0.01 0.00 0.01 0.03 0.04 0.04 0.05 0.07 0.08 0.12 0.15 0.11 0.05 0.04 0.03 0.01 0.01 0.01 0.01 0.03 0.06 0.06 0.05 0.07 0.10 0.10 0.07 0.06 0.05 0.04 0.03 0.04 0.06 0.06 0.06 0.08 0.07 0.07 0.06 0.03
0.01 0.01 0.01 0.02 0.01 0.02 0.04 0.04 0.04 0.05 0.06 0.05 0.07 0.13 0.13 0.06 0.04 0.03 0.02 0.01 0.01 0.02 0.03 0.04 0.08 0.08 0.09 0.09 0.09 0.10 0.09 0.07 0.05 0.02 0.03 0.04 0.06 0.07 0.06 0.06 0.07 0.06 0.04
0.01 0.01 0.01 0.01 0.01 0.02 0.07 0.04 0.03 0.05 0.05 0.05 0.06 0.10 0.11 0.06 0.04 0.04 0.04 0.03 0.02 0.03 0.04 0.03 0.06 0.11 0.12 0.12 0.11 0.11 0.10 0.08 0.05 0.03 0.03 0.05 0.06 0.05 0.03 0.04 0.04 0.05 0.05
0.03 0.02 0.02 0.02 0.01 0.02 0.05 0.04 0.04 0.03 0.04 0.05 0.06 0.08 0.08 0.06 0.05 0.05 0.05 0.05 0.05 0.06 0.05 0.04 0.04 0.05 0.07 0.12 0.13 0.11 0.09 0.07 0.06 0.05 0.04 0.04 0.04 0.02 0.02 0.02 0.03 0.03 0.05
0.09 0.06 0.02 0.01 0.01 0.01 0.02 0.05 0.06 0.06 0.06 0.07 0.07 0.07 0.06 0.06 0.06 0.05 0.05 0.05 0.07 0.07 0.06 0.04 0.03 0.03 0.04 0.05 0.07 0.06 0.05 0.04 0.04 0.04 0.04 0.04 0.03 0.02 0.02 0.02 0.02 0.02 0.03
0.07 0.05 0.02 0.01 0.01 0.01 0.02 0.03 0.05 0.06 0.06 0.09 0.12 0.10 0.07 0.07 0.07 0.05 0.04 0.04 0.05 0.05 0.05 0.03 0.04 0.05 0.04 0.03 0.03 0.03 0.03 0.03 0.03 0.03 0.03 0.02 0.02 0.02 0.02 0.02 0.02 0.02 0.02
MSLP
1008.87 1008.29 1007.92 1007.77 1007.84 1008.05 1008.34 1008.65 1008.93 1009.17 1009.41 1009.68 1010.04 1010.49 1011.03 1011.63 1012.23 1012.79 1013.24 1013.59 1013.86 1014.06 1014.26 1014.48 1014.75 1015.07 1015.39 1015.70 1015.95 1016.14 1016.26 1016.34 1016.42 1016.53 1016.71 1016.95 1017.25 1017.58 1017.90 1018.19 1018.42 1018.60 1018.74
1008.88 1008.31 1007.95 1007.83 1007.92 1008.18 1008.52 1008.86 1009.17 1009.45 1009.70 1010.00 1010.36 1010.83 1011.39 1012.01 1012.64 1013.22 1013.70 1014.07 1014.34 1014.55 1014.74 1014.95 1015.19 1015.48 1015.79 1016.07 1016.31 1016.48 1016.59 1016.67 1016.74 1016.85 1017.02 1017.25 1017.54 1017.86 1018.17 1018.45 1018.68 1018.86 1019.01
1008.52 1007.92 1007.56 1007.48 1007.66 1008.02 1008.48 1008.95 1009.38 1009.74 1010.07 1010.39 1010.77 1011.23 1011.78 1012.39 1013.01 1013.58 1014.07 1014.45 1014.73 1014.95 1015.14 1015.34 1015.58 1015.84 1016.13 1016.40 1016.62 1016.79 1016.91 1016.99 1017.08 1017.19 1017.36 1017.59 1017.86 1018.15 1018.44 1018.70 1018.91 1019.09 1019.24
1007.71 1007.06 1006.70 1006.68 1006.98 1007.51 1008.17 1008.85 1009.47 1009.99 1010.43 1010.81 1011.21 1011.65 1012.16 1012.72 1013.30 1013.85 1014.33 1014.72 1015.02 1015.25 1015.46 1015.67 1015.90 1016.16 1016.43 1016.68 1016.90 1017.08 1017.20 1017.31 1017.41 1017.54 1017.71 1017.93 1018.18 1018.44 1018.70 1018.93 1019.12 1019.29 1019.45
1006.52 1005.79 1005.42 1005.49 1005.94 1006.70 1007.62 1008.56 1009.43 1010.15 1010.73 1011.20 1011.62 1012.04 1012.50 1013.00 1013.52 1014.03 1014.50 1014.90 1015.22 1015.49 1015.73 1015.96 1016.20 1016.45 1016.71 1016.95 1017.17 1017.34 1017.49 1017.61 1017.74 1017.88 1018.06 1018.26 1018.49 1018.71 1018.93 1019.12 1019.29 1019.45 1019.61
1005.14 1004.31 1003.93 1004.09 1004.72 1005.71 1006.91 1008.14 1009.27 1010.23 1010.97 1011.54 1011.99 1012.39 1012.79 1013.23 1013.70 1014.17 1014.63 1015.04 1015.40 1015.71 1015.98 1016.24 1016.49 1016.75 1017.00 1017.23 1017.43 1017.61 1017.76 1017.90 1018.04 1018.20 1018.37 1018.56 1018.76 1018.95 1019.13 1019.28 1019.42 1019.57 1019.73
1003.84 1002.92 1002.55 1002.78 1003.57 1004.79 1006.24 1007.73 1009.12 1010.28 1011.18 1011.84 1012.32 1012.71 1013.08 1013.46 1013.87 1014.32 1014.76 1015.19 1015.58 1015.94 1016.25 1016.54 1016.81 1017.07 1017.30 1017.52 1017.71 1017.87 1018.02 1018.16 1018.31 1018.47 1018.64 1018.82 1018.99 1019.15 1019.29 1019.41 1019.52 1019.65 1019.81
1002.97 1001.99 1001.61 1001.92 1002.83 1004.21 1005.85 1007.54 1009.10 1010.42 1011.43 1012.16 1012.68 1013.06 1013.39 1013.73 1014.11 1014.53 1014.97 1015.41 1015.83 1016.21 1016.56 1016.87 1017.15 1017.41 1017.63 1017.82 1017.99 1018.14 1018.27 1018.40 1018.54 1018.70 1018.86 1019.03 1019.18 1019.31 1019.42 1019.51 1019.60 1019.71 1019.86
1002.79 1001.80 1001.45 1001.80 1002.78 1004.24 1005.96 1007.74 1009.38 1010.76 1011.83 1012.58 1013.11 1013.48 1013.79 1014.09 1014.44 1014.84 1015.27 1015.71 1016.13 1016.53 1016.90 1017.22 1017.50 1017.75 1017.95 1018.12 1018.27 1018.39 1018.50 1018.61 1018.74 1018.88 1019.03 1019.18 1019.32 1019.44 1019.53 1019.60 1019.68 1019.77 1019.91
1003.44 1002.51 1002.20 1002.58 1003.57 1005.01 1006.70 1008.44 1010.04 1011.38 1012.41 1013.14 1013.64 1013.99 1014.28 1014.56 1014.88 1015.25 1015.66 1016.08 1016.49 1016.87 1017.23 1017.54 1017.82 1018.05 1018.24 1018.39 1018.51 1018.61 1018.69 1018.78 1018.88 1019.00 1019.14 1019.28 1019.42 1019.54 1019.63 1019.70 1019.77 1019.85 1019.96
1004.88 1004.07 1003.84 1004.24 1005.17 1006.50 1008.05 1009.62 1011.07 1012.27 1013.19 1013.84 1014.28 1014.60 1014.86 1015.12 1015.41 1015.75 1016.11 1016.49 1016.86 1017.21 1017.53 1017.81 1018.07 1018.29 1018.46 1018.60 1018.70 1018.78 1018.83 1018.89 1018.96 1019.06 1019.18 1019.32 1019.46 1019.59 1019.70 1019.79 1019.86 1019.94 1020.03
1006.90 1006.29 1006.15 1006.54 1007.38 1008.53 1009.85 1011.17 1012.37 1013.35 1014.10 1014.62 1014.99 1015.25 1015.48 1015.72 1015.99 1016.28 1016.60 1016.91 1017.22 1017.50 1017.77 1018.01 1018.24 1018.44 1018.61 1018.75 1018.84 1018.89 1018.92 1018.94 1018.98 1019.04 1019.15 1019.28 1019.44 1019.59 1019.73 1019.85 1019.94 1020.02 1020.11
1009.19 1008.80 1008.78 1009.16 1009.88 1010.81 1011.85 1012.87 1013.77 1014.49 1015.03 1015.41 1015.68 1015.89 1016.10 1016.32 1016.56 1016.82 1017.07 1017.32 1017.54 1017.75 1017.95 1018.15 1018.35 1018.53 1018.70 1018.83 1018.91 1018.94 1018.94 1018.93 1018.92 1018.95 1019.03 1019.16 1019.32 1019.50 1019.68 1019.84 1019.97 1020.07 1020.15
1011.39 1011.23 1011.33 1011.70 1012.29 1013.00 1013.76 1014.46 1015.06 1015.52 1015.86 1016.10 1016.29 1016.46 1016.65 1016.87 1017.09 1017.31 1017.52 1017.69 1017.84 1017.98 1018.11 1018.26 1018.42 1018.59 1018.75 1018.87 1018.95 1018.96 1018.93 1018.87 1018.81 1018.79 1018.83 1018.93 1019.10 1019.30 1019.52 1019.73 1019.90 1020.03 1020.13
1013.20 1013.25 1013.45 1013.82 1014.29 1014.81 1015.31 1015.75 1016.09 1016.34 1016.50 1016.63 1016.76 1016.92 1017.11 1017.33 1017.55 1017.75 1017.92 1018.04 1018.12 1018.19 1018.27 1018.37 1018.50 1018.65 1018.80 1018.92 1018.98 1018.97 1018.89 1018.78 1018.66 1018.57 1018.56 1018.62 1018.77 1018.99 1019.24 1019.49 1019.71 1019.87 1019.99
1014.44 1014.64 1014.92 1015.28 1015.66 1016.04 1016.37 1016.61 1016.78 1016.87 1016.93 1016.99 1017.09 1017.25 1017.45 1017.69 1017.92 1018.12 1018.27 1018.36 1018.41 1018.43 1018.47 1018.53 1018.63 1018.77 1018.90 1019.00 1019.03 1018.99 1018.86 1018.69 1018.49 1018.33 1018.24 1018.26 1018.37 1018.58 1018.84 1019.11 1019.36 1019.57 1019.71
1015.09 1015.39 1015.72 1016.06 1016.40 1016.70 1016.92 1017.07 1017.14 1017.16 1017.17 1017.21 1017.31 1017.47 1017.70 1017.96 1018.21 1018.42 1018.57 1018.65 1018.68 1018.69 1018.70 1018.74 1018.82 1018.94 1019.05 1019.12 1019.12 1019.04 1018.86 1018.61 1018.35 1018.10 1017.93 1017.87 1017.93 1018.10 1018.35 1018.63 1018.90 1019.12 1019.29
1015.29 1015.61 1015.95 1016.30 1016.62 1016.89 1017.10 1017.22 1017.28 1017.30 1017.31 1017.35 1017.46 1017.64 1017.87 1018.14 1018.41 1018.63 1018.79 1018.89 1018.93 1018.94 1018.95 1018.98 1019.05 1019.14 1019.22 1019.27 1019.24 1019.11 1018.88 1018.58 1018.24 1017.92 1017.67 1017.53 1017.52 1017.62 1017.82 1018.08 1018.33 1018.56 1018.74
1015.20 1015.51 1015.84 1016.19 1016.52 1016.82 1017.06 1017.23 1017.33 1017.39 1017.43 1017.49 1017.60 1017.77 1017.99 1018.24 1018.50 1018.73 1018.91 1019.02 1019.09 1019.12 1019.14 1019.18 1019.24 1019.31 1019.37 1019.39 1019.34 1019.18 1018.92 1018.58 1018.19 1017.81 1017.49 1017.27 1017.17 1017.19 1017.32 1017.51 1017.73 1017.94 1018.10
1015.02 1015.28 1015.59 1015.94 1016.30 1016.66 1016.97 1017.22 1017.40 1017.52 1017.59 1017.66 1017.75 1017.87 1018.04 1018.25 1018.48 1018.69 1018.87 1019.01 1019.10 1019.16 1019.21 1019.26 1019.32 1019.38 1019.43 1019.43 1019.36 1019.20 1018.93 1018.58 1018.18 1017.77 1017.39 1017.10 1016.92 1016.85 1016.88 1016.98 1017.13 1017.28 1017.41
1014.86 1015.08 1015.36 1015.72 1016.12 1016.54 1016.94 1017.28 1017.54 1017.71 1017.81 1017.85 1017.88 1017.93 1018.01 1018.14 1018.30 1018.48 1018.65 1018.80 1018.92 1019.01 1019.09 1019.15 1019.22 1019.28 1019.32 1019.32 1019.25 1019.10 1018.87 1018.54 1018.16 1017.75 1017.36 1017.02 1016.76 1016.59 1016.52 1016.52 1016.57 1016.64 1016.72
1014.76 1014.95 1015.22 1015.58 1016.02 1016.50 1016.98 1017.40 1017.72 1017.93 1018.02 1018.02 1017.97 1017.91 1017.88 1017.89 1017.96 1018.08 1018.22 1018.37 1018.51 1018.63 1018.74 1018.82 1018.89 1018.95 1018.99 1019.00 1018.96 1018.86 1018.67 1018.42 1018.09 1017.72 1017.34 1016.98 1016.66 1016.41 1016.23 1016.12 1016.06 1016.04 1016.04
1014.69 1014.87 1015.14 1015.51 1015.97 1016.50 1017.03 1017.50 1017.86 1018.08 1018.15 1018.09 1017.95 1017.77 1017.61 1017.51 1017.48 1017.52 1017.63 1017.77 1017.92 1018.05 1018.17 1018.26 1018.34 1018.40 1018.44 1018.47 1018.47 1018.43 1018.32 1018.15 1017.92 1017.62 1017.28 1016.93 1016.59 1016.27 1016.00 1015.77 1015.61 1015.48 1015.40
1014.58 1014.77 1015.04 1015.41 1015.88 1016.43 1016.98 1017.48 1017.86 1018.08 1018.12 1018.00 1017.78 1017.50 1017.23 1017.02 1016.90 1016.88 1016.94 1017.06 1017.20 1017.34 1017.46 1017.55 1017.62 1017.68 1017.72 1017.77 1017.81 1017.83 1017.81 1017.74 1017.61 1017.41 1017.14 1016.82 1016.48 1016.12 1015.78 1015.47 1015.20 1014.98 1014.82
1014.36 1014.58 1014.85 1015.21 1015.68 1016.21 1016.77 1017.27 1017.65 1017.87 1017.89 1017.74 1017.46 1017.12 1016.77 1016.49 1016.31 1016.23 1016.26 1016.35 1016.48 1016.61 1016.71 1016.79 1016.84 1016.88 1016.92 1016.97 1017.04 1017.11 1017.18 1017.21 1017.18 1017.08 1016.90 1016.64 1016.31 1015.94 1015.56 1015.18 1014.84 1014.55 1014.31
1014.04 1014.28 1014.54 1014.89 1015.32 1015.82 1016.36 1016.85 1017.23 1017.45 1017.48 1017.34 1017.05 1016.69 1016.33 1016.01 1015.79 1015.69 1015.68 1015.75 1015.86 1015.96 1016.04 1016.09 1016.10 1016.11 1016.13 1016.17 1016.26 1016.37 1016.49 1016.61 1016.67 1016.67 1016.57 1016.37 1016.09 1015.73 1015.34 1014.93 1014.54 1014.20 1013.91
Thickness
5795 5799 5797 5797 5798 5798 5797 5797 5796 5795 5794 5793 5792 5790 5789 5788 5786 5784 5782 5781 5780 5778 5777 5776 5774 5773 5771 5770 5769 5768 5766 5765 5763 5762 5760 5759 5757 5756 5755 5754 5752 5751 5750
5799 5798 5797 5796 5796 5796 5796 5795 5795 5794 5793 5792 5790 5789 5788 5786 5785 5783 5781 5780 5779 5777 5775 5774 5773 5772 5770 5769 5768 5767 5765 5764 5762 5761 5760 5758 5757 5756 5754 5753 5752 5750 5749
5799 5798 5796 5796 5795 5795 5794 5793 5793 5792 5791 5790 5789 5788 5787 5785 5783 5782 5780 5779 5778 5776 5775 5773 5772 5771 5769 5768 5767 5765 5764 5763 5762 5761 5759 5758 5756 5755 5754 5752 5751 5750 5748
5799 5797 5795 5794 5794 5793 5792 5791 5790 5790 5789 5788 5787 5786 5785 5784 5782 5781 5779 5778 5777 5775 5773 5772 5771 5769 5768 5767 5766 5764 5763 5762 5761 5760 5758 5757 5756 5755 5753 5752 5750 5749 5747
5798 5796 5794 5793 5792 5791 5790 5789 5788 5787 5787 5786 5786 5785 5784 5782 5781 5779 5778 5777 5776 5774 5773 5771 5770 5769 5767 5766 5765 5764 5763 5762 5760 5759 5757 5757 5756 5754 5753 5751 5750 5748 5747
5796 5795 5794 5792 5791 5790 5788 5787 5786 5785 5785 5784 5784 5783 5783 5782 5780 5779 5777 5776 5775 5774 5772 5770 5769 5768 5767 5766 5764 5763 5762 5761 5759 5758 5757 5756 5755 5754 5752 5751 5749 5748 5746
5794 5794 5793 5791 5790 5788 5787 5786 5785 5784 5784 5783 5782 5782 5781 5780 5779 5778 5777 5775 5773 5772 5771 5769 5768 5767 5766 5765 5764 5763 5761 5760 5759 5757 5756 5755 5755 5753 5752 5751 5749 5748 5746
5793 5792 5791 5790 5789 5787 5786 5784 5784 5783 5783 5782 5781 5781 5780 5779 5778 5777 5775 5774 5772 5771 5770 5768 5767 5766 5766 5765 5763 5762 5761 5759 5758 5757 5756 5755 5754 5753 5752 5750 5749 5747 5746
5792 5791 5790 5788 5787 5786 5785 5783 5783 5782 5782 5781 5781 5780 5780 5778 5777 5775 5774 5773 5772 5770 5769 5768 5766 5766 5765 5764 5763 5761 5760 5759 5758 5757 5756 5755 5754 5753 5751 5750 5749 5747 5746
5788 5788 5787 5786 5785 5784 5783 5782 5781 5781 5780 5780 5779 5779 5778 5777 5776 5774 5773 5772 5770 5769 5768 5766 5765 5765 5764 5763 5762 5760 5760 5759 5758 5757 5756 5755 5754 5753 5751 5750 5749 5747 5745
5785 5784 5784 5784 5783 5782 5781 5781 5780 5779 5779 5778 5777 5777 5776 5775 5774 5773 5772 5771 5770 5769 5767 5765 5764 5763 5763 5762 5760 5759 5759 5758 5757 5756 5756 5755 5754 5753 5751 5750 5748 5747 5745
5781 5782 5783 5782 5781 5781 5780 5779 5779 5778 5777 5777 5776 5776 5774 5773 5773 5772 5771 5771 5770 5768 5766 5764 5763 5762 5761 5760 5759 5758 5758 5757 5757 5756 5756 5755 5754 5753 5752 5750 5748 5747 5745
5782 5782 5782 5781 5781 5780 5779 5778 5777 5776 5776 5775 5775 5774 5773 5772 5771 5770 5769 5768 5767 5766 5765 5763 5761 5760 5759 5758 5757 5757 5757 5757 5758 5757 5757 5756 5755 5753 5752 5750 5748 5747 5745
5782 5781 5782 5781 5780 5780 5779 5778 5776 5775 5774 5774 5773 5772 5771 5770 5769 5768 5767 5766 5766 5764 5763 5762 5761 5760 5758 5757 5756 5757 5757 5757 5758 5758 5757 5757 5755 5754 5752 5751 5749 5747 5746
5782 5782 5782 5782 5781 5780 5779 5777 5776 5775 5774 5773 5772 5771 5770 5769 5768 5767 5766 5765 5764 5764 5762 5761 5760 5759 5757 5756 5756 5756 5757 5757 5758 5758 5757 5757 5756 5755 5753 5752 5750 5748 5747
5784 5783 5783 5783 5782 5781 5779 5777 5776 5775 5774 5773 5772 5770 5770 5769 5768 5766 5765 5764 5763 5763 5762 5760 5759 5758 5757 5756 5756 5756 5756 5757 5758 5758 5757 5757 5757 5756 5754 5753 5751 5750 5748
5786 5785 5784 5783 5783 5781 5780 5778 5777 5776 5774 5773 5772 5770 5769 5768 5767 5766 5765 5763 5763 5762 5761 5759 5758 5757 5756 5755 5755 5756 5756 5757 5758 5758 5758 5757 5757 5756 5755 5754 5752 5751 5750
5788 5785 5784 5785 5783 5781 5780 5779 5778 5776 5774 5773 5771 5770 5769 5768 5767 5766 5764 5763 5762 5761 5760 5759 5757 5756 5755 5754 5754 5755 5756 5757 5758 5758 5758 5758 5757 5757 5755 5754 5753 5752 5751
5789 5786 5784 5784 5783 5781 5780 5779 5778 5776 5775 5773 5771 5770 5770 5768 5767 5765 5764 5763 5762 5760 5759 5758 5757 5755 5754 5753 5754 5755 5756 5756 5757 5758 5758 5758 5757 5756 5755 5754 5753 5752 5751
5790 5788 5785 5784 5782 5781 5779 5777 5776 5775 5774 5773 5772 5771 5770 5768 5767 5765 5763 5762 5761 5760 5758 5757 5756 5755 5753 5753 5753 5754 5754 5756 5756 5756 5757 5757 5757 5756 5756 5755 5754 5753 5751
5789 5787 5785 5783 5782 5780 5777 5775 5773 5772 5772 5773 5772 5772 5771 5769 5767 5765 5763 5762 5761 5759 5758 5757 5755 5753 5751 5752 5749 5748 5751 5754 5755 5755 5756 5756 5756 5756 5755 5754 5753 5752 5751
5789 5787 5785 5783 5782 5780 5778 5776 5775 5774 5773 5773 5773 5772 5771 5769 5767 5766 5764 5762 5761 5759 5757 5755 5754 5751 5750 5750 5747 5743 5741 5744 5750 5754 5754 5754 5755 5754 5754 5753 5753 5752 5751
5790 5788 5787 5784 5783 5781 5779 5777 5775 5773 5772 5771 5771 5771 5771 5770 5768 5766 5764 5763 5761 5759 5757 5755 5754 5751 5748 5748 5748 5743 5737 5735 5741 5748 5750 5752 5752 5752 5753 5752 5752 5752 5751
5792 5791 5788 5785 5783 5781 5779 5776 5773 5770 5767 5768 5770 5770 5770 5769 5768 5766 5764 5763 5761 5760 5758 5756 5755 5752 5749 5746 5745 5746 5744 5742 5737 5739 5745 5748 5750 5750 5751 5751 5751 5751 5750
5794 5791 5789 5786 5783 5782 5780 5778 5774 5772 5770 5770 5769 5769 5768 5768 5767 5766 5764 5763 5761 5760 5758 5756 5754 5753 5750 5748 5745 5744 5743 5741 5740 5736 5737 5742 5745 5748 5749 5750 5750 5750 5749
5795 5792 5789 5785 5783 5782 5780 5778 5775 5772 5770 5768 5767 5766 5766 5766 5766 5765 5764 5762 5761 5759 5758 5756 5755 5753 5751 5749 5747 5745 5743 5740 5739 5737 5736 5738 5739 5744 5747 5748 5748 5748 5747